• In Uzbekistan
  • List of Countries
  • For 7 days
  • Water Temperature
  • Weather Map
  • Weather Widgets
  • user-avatar
    Login

    Hourly Weather Jalalabad

    Today, 25 January, Saturday

    Time Temperature Precipitation Wind Pressure Humidity
    00:00 +9°C° 0 mm 1 mps 711 mmHg 49%
    01:00 +8°C° 0 mm 1 mps 711 mmHg 50%
    02:00 +8°C° 0 mm 1 mps 711 mmHg 52%
    03:00 +8°C° 0 mm 1 mps 711 mmHg 52%
    04:00 +8°C° 0 mm 1 mps 711 mmHg 52%
    05:00 +7°C° 0 mm 1 mps 710 mmHg 52%
    06:00 +7°C° 0 mm 1 mps 711 mmHg 53%
    07:00 +7°C° 0 mm 1 mps 711 mmHg 54%
    08:00 +7°C° 0 mm 1 mps 711 mmHg 54%
    09:00 +9°C° 0 mm 1 mps 711 mmHg 49%
    10:00 +11°C° 0 mm 1 mps 711 mmHg 44%
    11:00 +13°C° 0 mm 1 mps 711 mmHg 38%
    12:00 +14°C° 0 mm 1 mps 710 mmHg 36%
    13:00 +14°C° 0 mm 1 mps 710 mmHg 34%
    14:00 +15°C° 0 mm 2 mps 709 mmHg 32%
    15:00 +15°C° 0 mm 2 mps 709 mmHg 34%
    16:00 +15°C° 0 mm 2 mps 709 mmHg 36%
    17:00 +15°C° 0 mm 2 mps 709 mmHg 38%
    18:00 +14°C° 0 mm 2 mps 710 mmHg 42%
    19:00 +13°C° 0 mm 2 mps 710 mmHg 46%
    20:00 +10°C° 0 mm 2 mps 711 mmHg 49%
    21:00 +11°C° 0 mm 1 mps 711 mmHg 50%
    22:00 +10°C° 0 mm 1 mps 711 mmHg 50%
    23:00 +10°C° 0 mm 1 mps 711 mmHg 51%

    Tomorrow, 26 January, Sunday

    Time Temperature Precipitation Wind Pressure Humidity
    00:00 +9°C° 0 mm 1 mps 711 mmHg 51%
    01:00 +9°C° 0 mm 1 mps 711 mmHg 51%
    02:00 +8°C° 0 mm 1 mps 711 mmHg 51%
    03:00 +8°C° 0 mm 1 mps 710 mmHg 51%
    04:00 +8°C° 0 mm 1 mps 710 mmHg 52%
    05:00 +7°C° 0 mm 1 mps 710 mmHg 52%
    06:00 +7°C° 0 mm 1 mps 710 mmHg 51%
    07:00 +7°C° 0 mm 1 mps 711 mmHg 51%
    08:00 +7°C° 0 mm 1 mps 711 mmHg 50%
    09:00 +9°C° 0 mm 1 mps 711 mmHg 45%
    10:00 +9°C° 0 mm 2 mps 711 mmHg 39%
    11:00 +12°C° 0 mm 2 mps 711 mmHg 33%
    12:00 +13°C° 0 mm 2 mps 710 mmHg 31%
    13:00 +13°C° 0 mm 2 mps 709 mmHg 29%
    14:00 +14°C° 0 mm 2 mps 708 mmHg 26%
    15:00 +14°C° 0 mm 1 mps 709 mmHg 28%
    16:00 +14°C° 0 mm 1 mps 709 mmHg 29%
    17:00 +14°C° 0 mm 1 mps 709 mmHg 30%
    18:00 +13°C° 0 mm 1 mps 709 mmHg 34%
    19:00 +12°C° 0 mm 1 mps 710 mmHg 37%
    20:00 +10°C° 0 mm 1 mps 710 mmHg 40%
    21:00 +10°C° 0 mm 1 mps 710 mmHg 41%
    22:00 +9°C° 0 mm 1 mps 710 mmHg 41%
    23:00 +8°C° 0 mm 2 mps 710 mmHg 42%

    Day after tomorrow, 27 January, Monday

    Time Temperature Precipitation Wind Pressure Humidity
    00:00 +9°C° 0 mm 1 mps 710 mmHg 42%
    01:00 +8°C° 0 mm 1 mps 710 mmHg 43%
    02:00 +8°C° 0 mm 1 mps 710 mmHg 43%
    03:00 +7°C° 0 mm 1 mps 709 mmHg 44%
    04:00 +7°C° 0 mm 1 mps 709 mmHg 44%
    05:00 +7°C° 0 mm 1 mps 708 mmHg 44%
    06:00 +7°C° 0 mm 1 mps 709 mmHg 44%
    07:00 +7°C° 0 mm 1 mps 709 mmHg 44%
    08:00 +7°C° 0 mm 1 mps 709 mmHg 43%
    09:00 +8°C° 0 mm 1 mps 709 mmHg 38%
    10:00 +10°C° 0 mm 1 mps 709 mmHg 33%
    11:00 +10°C° 0 mm 2 mps 709 mmHg 29%
    12:00 +12°C° 0 mm 2 mps 708 mmHg 27%
    13:00 +13°C° 0 mm 2 mps 707 mmHg 25%
    14:00 +14°C° 0 mm 2 mps 707 mmHg 24%
    15:00 +14°C° 0 mm 1 mps 707 mmHg 26%
    16:00 +14°C° 0 mm 1 mps 707 mmHg 28%
    17:00 +14°C° 0 mm 1 mps 707 mmHg 29%
    18:00 +13°C° 0 mm 1 mps 708 mmHg 32%
    19:00 +12°C° 0 mm 1 mps 708 mmHg 35%
    20:00 +10°C° 0 mm 2 mps 709 mmHg 37%
    21:00 +9°C° 0 mm 2 mps 709 mmHg 38%
    22:00 +9°C° 0 mm 2 mps 709 mmHg 39%
    23:00 +8°C° 0 mm 2 mps 710 mmHg 40%

    28 January, Tuesday

    Time Temperature Precipitation Wind Pressure Humidity
    00:00 +8°C° 0 mm 2 mps 709 mmHg 39%
    01:00 +7°C° 0 mm 2 mps 709 mmHg 38%
    02:00 +7°C° 0 mm 2 mps 709 mmHg 38%
    03:00 +7°C° 0 mm 2 mps 709 mmHg 37%
    04:00 +6°C° 0 mm 2 mps 708 mmHg 37%
    05:00 +6°C° 0 mm 2 mps 708 mmHg 37%
    06:00 +6°C° 0 mm 2 mps 709 mmHg 37%
    07:00 +6°C° 0 mm 2 mps 709 mmHg 36%
    08:00 +5°C° 0 mm 2 mps 709 mmHg 36%
    09:00 +7°C° 0 mm 2 mps 709 mmHg 32%
    10:00 +8°C° 0 mm 2 mps 709 mmHg 27%
    11:00 +9°C° 0 mm 2 mps 708 mmHg 23%
    12:00 +10°C° 0 mm 2 mps 708 mmHg 22%
    13:00 +11°C° 0 mm 3 mps 707 mmHg 20%
    14:00 +12°C° 0 mm 3 mps 706 mmHg 19%
    15:00 +12°C° 0 mm 2 mps 706 mmHg 20%
    16:00 +12°C° 0 mm 2 mps 707 mmHg 21%
    17:00 +12°C° 0 mm 1 mps 707 mmHg 22%
    18:00 +12°C° 0 mm 1 mps 707 mmHg 26%
    19:00 +11°C° 0 mm 1 mps 708 mmHg 30%
    20:00 +10°C° 0 mm 1 mps 709 mmHg 33%
    21:00 +10°C° 0 mm 1 mps 709 mmHg 34%
    22:00 +9°C° 0 mm 1 mps 709 mmHg 35%
    23:00 +9°C° 0 mm 1 mps 709 mmHg 35%

    29 January, Wednesday

    Time Temperature Precipitation Wind Pressure Humidity
    00:00 +9°C° 0 mm 1 mps 708 mmHg 36%
    01:00 +8°C° 0 mm 1 mps 708 mmHg 36%
    02:00 +8°C° 0 mm 1 mps 708 mmHg 36%
    03:00 +8°C° 0 mm 1 mps 708 mmHg 36%
    04:00 +8°C° 0 mm 1 mps 708 mmHg 36%
    05:00 +8°C° 0 mm 1 mps 708 mmHg 36%
    06:00 +8°C° 0 mm 1 mps 708 mmHg 36%
    07:00 +8°C° 0 mm 1 mps 708 mmHg 36%
    08:00 +8°C° 0 mm 1 mps 709 mmHg 37%
    09:00 +8°C° 0 mm 1 mps 709 mmHg 33%
    10:00 +9°C° 0 mm 1 mps 709 mmHg 30%
    11:00 +10°C° 0 mm 1 mps 709 mmHg 27%
    12:00 +11°C° 0 mm 1 mps 709 mmHg 26%
    13:00 +11°C° 0 mm 1 mps 709 mmHg 25%
    14:00 +12°C° 0 mm 1 mps 709 mmHg 24%
    15:00 +12°C° 0 mm 1 mps 709 mmHg 24%
    16:00 +12°C° 0 mm 1 mps 709 mmHg 25%
    17:00 +12°C° 0 mm 1 mps 710 mmHg 25%
    18:00 +12°C° 0 mm 1 mps 710 mmHg 28%
    19:00 +11°C° 0 mm 1 mps 711 mmHg 32%
    20:00 +10°C° 0 mm 1 mps 711 mmHg 35%
    21:00 +10°C° 0 mm 1 mps 711 mmHg 36%
    22:00 +9°C° 0 mm 1 mps 712 mmHg 37%
    23:00 +9°C° 0 mm 1 mps 712 mmHg 38%

    30 January, Thursday

    Time Temperature Precipitation Wind Pressure Humidity
    00:00 +8°C° 0 mm 1 mps 712 mmHg 39%
    01:00 +8°C° 0 mm 1 mps 712 mmHg 39%
    02:00 +8°C° 0 mm 1 mps 712 mmHg 40%
    03:00 +7°C° 0 mm 1 mps 712 mmHg 40%
    04:00 +7°C° 0 mm 1 mps 711 mmHg 40%
    05:00 +7°C° 0 mm 1 mps 711 mmHg 40%
    06:00 +7°C° 0 mm 1 mps 711 mmHg 41%
    07:00 +7°C° 0 mm 1 mps 712 mmHg 42%
    08:00 +7°C° 0 mm 1 mps 712 mmHg 42%
    09:00 +8°C° 0 mm 1 mps 712 mmHg 38%
    10:00 +9°C° 0 mm 1 mps 711 mmHg 34%
    11:00 +10°C° 0 mm 2 mps 711 mmHg 30%
    12:00 +12°C° 0 mm 1 mps 711 mmHg 29%
    13:00 +13°C° 0 mm 1 mps 710 mmHg 28%
    14:00 +13°C° 0 mm 1 mps 710 mmHg 27%
    15:00 +14°C° 0 mm 1 mps 710 mmHg 28%
    16:00 +14°C° 0 mm 1 mps 710 mmHg 28%
    17:00 +14°C° 0 mm 1 mps 710 mmHg 29%
    18:00 +12°C° 0 mm 1 mps 710 mmHg 32%
    19:00 +11°C° 0 mm 1 mps 711 mmHg 35%
    20:00 +10°C° 0 mm 1 mps 711 mmHg 38%
    21:00 +10°C° 0 mm 1 mps 711 mmHg 39%
    22:00 +9°C° 0 mm 1 mps 712 mmHg 39%
    23:00 +9°C° 0 mm 1 mps 712 mmHg 40%
    Show more